Location: Bottens
(46.6171°N, 6.6605°E)
Time: 01:11:06
(UTC+00:00)

Meteor 2-14 Rocket - Pass Details

Date: 20 June 2021
Orbit: 938 x 956 km, 82.5° (Epoch: 25 July)

Event Time Altitude Azimuth Distance (km) Brightness Sun altitude
Exits shadow 02:11:37 10° 186° (S) 2,657 6.3 -11.5°
Maximum altitude 02:17:43 88° 101° (E) 957 4.5 -10.9°
Drops below altitude 10° 02:23:53 10° 10° (N) 2,690 7.9 -10.2°
Sets 02:26:24 0° 10° (N) 3,642 8.7 -10.0°
